Stations météo

réclame
Mon MeteoGroup
Grünow, Allemagne (10289): Température de l'air & dewpoint: 19.02.2018 00:00:00 - 25.02.2018 00:00:00 (CET)Grünow, Allemagne (10289): Température de l'air 5cm & Température de l'air -5cm: 19.02.2018 00:00:00 - 25.02.2018 00:00:00 (CET)Grünow, Allemagne (10289): Température de l'air -20cm & Température de l'air -100cm: 19.02.2018 00:00:00 - 25.02.2018 00:00:00 (CET)Grünow, Allemagne (10289): Vitesse du vent & gusts: 19.02.2018 00:00:00 - 25.02.2018 00:00:00 (CET)Grünow, Allemagne (10289): Direction du vent: 19.02.2018 00:00:00 - 25.02.2018 00:00:00 (CET)Grünow, Allemagne (10289): reduced air pressure: 19.02.2018 00:00:00 - 25.02.2018 00:00:00 (CET)Grünow, Allemagne (10289): visibility: 19.02.2018 00:00:00 - 25.02.2018 00:00:00 (CET)Grünow, Allemagne (10289): Ensoleillement: 19.02.2018 00:00:00 - 25.02.2018 00:00:00 (CET)Grünow, Allemagne (10289): Quantités de précipitations: 19.02.2018 00:00:00 - 25.02.2018 00:00:00 (CET)
Date & Time tt [°C] td [°C] tt 5cm [°C] tt -5cm [°C] tt -20cm [°C] tt -100cm [°C] ff [km/h] ff [knt] fx [km/h] fx [knt] dd ppp [hPa] vv [km] sd [min] rr [mm]
25.02.2018 00:00:00 -6,6 -11,0 -8,7 -2,9 0,0 2,9 8 4 10 6 NE 1034,4 49 0 0,0
24.02.2018 23:00:00 -6,3 -11,1 -8,2 -2,6 0,0 2,9 7 4 14 7 E 1034,2 48 0 0,0
24.02.2018 22:00:00 -5,6 -11,3 -6,9 -2,2 0,0 2,9 10 5 20 11 ENE 1034,0 55 0 0,0
24.02.2018 21:00:00 -4,8 -11,4 -6,0 -1,5 0,0 2,9 14 8 29 15 ENE 1033,9 70 0 0,0
24.02.2018 20:00:00 -4,6 -10,8 -6,0 -0,4 0,0 2,9 13 7 28 15 NE 1033,8 70 0 0,0
24.02.2018 19:00:00 -3,8 -10,8 -4,9 -0,1 0,0 2,9 17 9 29 16 NE 1033,5 70 0 0,0
24.02.2018 18:00:00 -3,0 -11,4 -4,1 -0,1 0,0 2,9 21 11 33 18 NE 1032,9 69 33 0,0
24.02.2018 17:00:00 -2,1 -10,9 -2,2 -0,1 0,0 2,9 19 11 33 18 NE 1032,5 70 53 0,0
24.02.2018 16:00:00 -1,5 -10,6 -0,5 -0,1 0,0 2,9 17 9 35 19 NE 1032,2 70 58 0,0
24.02.2018 15:00:00 -0,7 -10,8 1,4 -0,1 0,0 2,9 18 10 34 18 ENE 1032,0 36 60 0,0
24.02.2018 14:00:00 -0,5 -10,1 2,3 -0,1 0,0 2,9 19 10 40 22 ENE 1031,7 26 60 0,0
24.02.2018 13:00:00 -0,9 -10,6 1,2 -0,1 0,0 2,9 19 11 41 22 NE 1031,7 51 51 0,0
24.02.2018 12:00:00 -2,0 -9,3 -1,5 -0,2 0,0 2,9 22 12 36 20 NE 1031,9 52 37 0,0
24.02.2018 11:00:00 -1,7 -7,7 0,4 -0,3 0,0 2,9 21 11 37 20 ENE 1031,9 46 36 0,0
24.02.2018 10:00:00 -1,3 -8,7 0,1 -0,7 0,0 2,9 18 10 40 21 NE 1031,4 70 49 0,0
24.02.2018 09:00:00 -1,6 -9,6 -1,8 -1,3 0,1 2,9 19 11 32 18 NE 1031,0 70 56 0,0
24.02.2018 08:00:00 -2,0 -8,3 -2,2 -1,4 0,1 2,9 23 12 37 20 NNE 1030,6 70 33 0,0
24.02.2018 07:00:00 -2,5 -7,9 -4,1 -1,4 0,1 2,9 15 8 29 16 NE 1030,3 70 0 0,0
24.02.2018 06:00:00 -1,8 -7,7 -3,3 -0,9 0,1 2,9 15 8 33 18 NE 1029,7 70 0 0,0
24.02.2018 05:00:00 -1,2 -5,6 -1,6 -0,6 0,1 2,9 22 12 32 18 NE 1029,1 70 0 0,0
24.02.2018 04:00:00 -1,5 -2,6 -1,7 -0,5 0,1 2,9 15 8 19 10 N 1028,4 17 0 0,0
24.02.2018 03:00:00 -1,9 -3,7 -1,9 -0,5 0,1 2,9 11 6 15 8 N 1028,2 4,9 0 0,0
24.02.2018 02:00:00 -2,3 -4,3 -2,3 -0,6 0,1 2,9 8 5 15 8 NW 1028,3 21 0 0,0
24.02.2018 01:00:00 -2,9 -4,5 -2,6 -0,6 0,1 2,9 8 4 10 6 WNW 1028,4 15 0 0,0
24.02.2018 00:00:00 -3,6 -5,5 -3,3 -0,6 0,1 2,9 4 2 9 5 NW 1028,5 16 0 0,0
23.02.2018 23:00:00 -4,3 -5,5 -4,2 -0,6 0,1 2,9 0 0 9 5 N 1028,4 19 0 0,0
23.02.2018 22:00:00 -4,1 -6,1 -5,7 -0,2 0,1 2,9 7 4 11 6 NE 1028,7 21 0 0,0
23.02.2018 21:00:00 -3,9 -6,2 -5,4 -0,1 0,1 3,0 6 3 13 7 NE 1028,5 25 0 0,0
23.02.2018 20:00:00 -3,2 -6,6 -4,6 0,0 0,2 3,0 12 6 18 10 NE 1028,1 29 0 0,0
23.02.2018 19:00:00 -2,9 -6,9 -4,3 0,0 0,2 3,0 11 6 18 10 NNE 1028,0 27 0 0,0
23.02.2018 18:00:00 -2,5 -6,6 -3,7 0,0 0,2 3,0 12 7 16 9 NNE 1027,9 22 8 0,0
23.02.2018 17:00:00 -1,9 -8,9 -2,3 0,0 0,2 3,0 7 4 16 8 NE 1027,6 26 32 0,0
23.02.2018 16:00:00 -1,7 -9,5 -0,4 0,0 0,2 3,0 10 5 20 11 ENE 1027,9 32 60 0,0
23.02.2018 15:00:00 -1,8 -9,2 1,1 0,0 0,2 3,0 10 5 18 10 NE 1027,9 17 60 0,0
23.02.2018 14:00:00 -2,5 -10,0 1,1 0,0 0,2 3,0 9 5 19 10 NE 1028,3 24 60 0,0
23.02.2018 13:00:00 -3,1 -9,5 1,3 -0,1 0,2 3,0 10 5 20 11 NE 1028,5 15 60 0,0
23.02.2018 12:00:00 -3,9 -10,5 -0,6 -0,3 0,2 3,0 10 5 18 10 NE 1028,9 15 60 0,0
23.02.2018 11:00:00 -4,3 -9,1 -1,8 -0,6 0,2 3,0 11 6 18 10 ENE 1028,9 12 60 0,0
23.02.2018 10:00:00 -5,0 -8,3 -2,9 -0,9 0,2 3,0 9 5 15 8 ENE 1028,6 10 60 0,0
23.02.2018 09:00:00 -6,2 -9,1 -6,6 -1,9 0,2 3,0 11 6 19 11 E 1028,4 9 60 0,0
23.02.2018 08:00:00 -6,7 -9,2 -7,1 -1,9 0,3 3,0 10 5 16 9 E 1028,1 8 19 0,0
23.02.2018 07:00:00 -6,6 -9,0 -7,4 -1,6 0,3 3,0 11 6 19 11 E 1027,7 8 0 0,0
23.02.2018 06:00:00 -6,0 -8,7 -6,5 -1,1 0,3 3,0 11 6 22 12 E 1027,2 6 0 0,0
23.02.2018 05:00:00 -5,0 -7,7 -5,4 -0,7 0,3 3,0 13 7 19 11 E 1026,8 13 0 0,0
23.02.2018 04:00:00 -5,0 -7,4 -5,8 -0,5 0,3 3,0 11 6 17 9 E 1026,5 12 0 0,0
23.02.2018 03:00:00 -4,3 -5,8 -5,0 -0,2 0,4 3,0 8 4 14 8 NE 1026,6 9 0 0,0
23.02.2018 02:00:00 -3,8 -5,5 -4,0 -0,2 0,4 3,0 8 5 13 7 NE 1026,6 13 0 0,0
23.02.2018 01:00:00 -3,6 -5,7 -5,2 -0,1 0,4 3,0 10 6 19 10 NNE 1026,8 15 0 0,0
23.02.2018 00:00:00 -3,1 -5,9 -4,3 -0,1 0,4 3,0 12 7 20 11 NE 1027,0 20 0 0,0
22.02.2018 23:00:00 -2,7 -5,0 -4,0 -0,1 0,4 3,0 13 7 22 12 NE 1027,0 20 0 0,0
22.02.2018 22:00:00 -2,3 -4,3 -3,9 -0,1 0,4 3,0 7 4 20 11 NE 1026,8 13 0 0,0
22.02.2018 21:00:00 -1,7 -3,4 -2,8 -0,1 0,4 3,0 10 5 17 9 NE 1026,5 11 0 0,0
22.02.2018 20:00:00 -0,8 -2,8 -1,6 -0,1 0,4 3,0 10 6 19 10 NE 1026,8 14 0 0,0
22.02.2018 19:00:00 -0,6 -2,7 -1,0 -0,1 0,4 3,0 8 4 14 8 ENE 1026,4 15 0 0,0
22.02.2018 18:00:00 -0,6 -2,6 -0,9 -0,1 0,4 3,0 6 4 11 6 ENE 1026,3 15 0 0,0
22.02.2018 17:00:00 0,0 -3,7 -0,4 -0,1 0,4 3,0 4 2 10 5 ENE 1026,1 26 0 0,0
22.02.2018 16:00:00 0,1 -3,2 0,2 -0,1 0,4 3,0 6 3 10 5 ENE 1026,0 20 0 0,0
22.02.2018 15:00:00 0,0 -2,1 0,0 -0,1 0,4 3,0 5 3 8 4 NE 1026,3 9 0 0,0
22.02.2018 14:00:00 0,3 -2,6 0,8 -0,1 0,4 3,0 5 3 8 4 NNW 1026,6 11 0 0,0
22.02.2018 13:00:00 0,2 -2,1 0,5 -0,1 0,4 3,0 3 2 8 5 N 1027,0 9 0 0,0
22.02.2018 12:00:00 0,1 -3,1 0,4 -0,1 0,4 3,0 2 1 9 5 WSW 1027,2 15 5 0,0
22.02.2018 11:00:00 -0,5 -2,2 0,1 -0,1 0,4 3,0 5 3 9 5 W 1027,1 8 3 0,0
22.02.2018 10:00:00 -0,9 -2,3 -0,8 -0,1 0,4 3,0 7 4 11 6 S 1027,1 7 9 0,0
22.02.2018 09:00:00 -1,7 -2,3 -1,2 -0,1 0,4 3,0 1 1 6 4 E 1027,2 4,2 0 0,0
22.02.2018 08:00:00 -2,6 -3,2 -2,4 -0,2 0,4 3,0 3 2 5 3 ESE 1027,0 3,5 0 0,0
22.02.2018 07:00:00 -3,2 -3,4 -3,6 -0,2 0,5 3,0 3 2 8 5 ENE 1026,8 3,1 0 0,0
22.02.2018 06:00:00 -3,3 -3,7 -4,5 -0,1 0,5 3,0 0 0 7 4 N 1027,0 3,5 0 0,0
22.02.2018 05:00:00 -3,0 -3,4 -4,4 -0,1 0,5 3,0 5 3 7 4 NE 1027,0 3,7 0 0,0
22.02.2018 04:00:00 -3,2 -3,7 -4,6 -0,1 0,5 3,0 5 3 7 4 NNE 1027,2 3,5 0 0,0
22.02.2018 03:00:00 -3,3 -3,7 -5,1 -0,1 0,5 3,0 4 2 5 3 NNW 1027,3 3,9 0 0,0
22.02.2018 02:00:00 -3,2 -3,7 -5,3 -0,1 0,5 3,0 4 2 10 5 NE 1027,6 5 0 0,0
22.02.2018 01:00:00 -2,6 -3,0 -4,0 0,0 0,5 3,0 6 3 9 5 NE 1027,6 6 0 0,0
22.02.2018 00:00:00 -2,4 -3,1 -4,0 0,0 0,6 3,0 6 3 9 5 NE 1027,4 10 0 0,0
21.02.2018 23:00:00 -2,0 -2,8 -4,0 0,0 0,6 3,0 6 3 10 5 NE 1027,3 10 0 0,0
21.02.2018 22:00:00 -1,4 -2,6 -3,0 0,0 0,6 3,0 5 3 16 8 ENE 1027,5 12 0 0,0
21.02.2018 21:00:00 -0,9 -2,2 -2,8 0,0 0,7 3,0 10 5 17 9 NNE 1027,1 12 0 0,0
21.02.2018 20:00:00 -0,4 -1,4 -1,3 0,1 0,7 3,0 13 7 19 10 N 1026,9 12 0 0,0
21.02.2018 19:00:00 -0,2 -1,5 -1,2 -0,1 0,8 3,0 13 7 20 11 N 1026,4 21 0 0,0
21.02.2018 18:00:00 0,6 -2,1 -0,4 0,5 0,8 3,0 11 6 15 8 N 1026,2 26 0 0,0
21.02.2018 17:00:00 1,1 -2,1 0,7 1,2 0,7 3,0 10 5 19 11 NNW 1025,9 42 0 0,0
21.02.2018 16:00:00 1,9 -2,0 2,0 1,6 0,6 3,0 16 9 23 13 N 1025,8 29 11 0,0
21.02.2018 15:00:00 2,2 -2,4 2,9 1,1 0,5 3,0 16 9 24 13 N 1026,0 21 20 0,0
21.02.2018 14:00:00 3,1 -4,4 6,2 -0,1 0,5 3,0 11 6 17 9 N 1026,3 20 60 0,0
21.02.2018 13:00:00 2,6 -4,9 6,3 -0,1 0,5 3,0 9 5 16 8 NNW 1026,7 19 60 0,0
21.02.2018 12:00:00 2,2 -4,4 6,0 -0,1 0,5 3,0 8 4 12 6 NNE 1026,7 13 60 0,0
21.02.2018 11:00:00 1,2 -3,0 3,7 -0,1 0,5 3,0 5 3 11 6 N 1026,5 11 60 0,0
21.02.2018 10:00:00 0,2 -3,3 1,1 -0,1 0,5 3,0 5 3 8 4 NNE 1026,5 10 60 0,0
21.02.2018 09:00:00 -0,7 -3,4 -1,8 -0,1 0,5 3,0 6 3 8 5 NNE 1026,3 10 48 0,0
21.02.2018 08:00:00 -1,3 -3,8 -2,7 -0,1 0,5 3,0 7 4 10 6 NE 1025,9 10 19 0,0
21.02.2018 07:00:00 -1,0 -3,6 -2,4 -0,1 0,5 3,0 7 4 15 8 NE 1025,9 10 0 0,0
21.02.2018 06:00:00 -0,8 -3,4 -1,2 -0,1 0,5 3,0 8 4 13 7 NE 1025,7 11 0 0,0
21.02.2018 05:00:00 -1,2 -4,0 -1,8 -0,1 0,5 3,0 9 5 12 7 NE 1025,3 11 0 0,0
21.02.2018 04:00:00 -0,9 -4,0 -2,4 -0,1 0,6 3,0 7 4 14 7 NE 1025,3 12 0 0,0
21.02.2018 03:00:00 -0,7 -4,0 -1,5 -0,1 0,6 3,0 8 4 13 7 NE 1025,3 13 0 0,0
21.02.2018 02:00:00 -0,7 -4,4 -1,3 0,0 0,6 3,0 9 5 14 8 NE 1025,3 13 0 0,0
21.02.2018 01:00:00 -1,5 -4,9 -3,1 0,0 0,6 3,0 10 5 15 8 NE 1025,2 11 0 0,0
21.02.2018 00:00:00 -1,8 -5,4 -3,5 0,0 0,6 3,0 8 4 15 8 ENE 1024,9 12 0 0,0
20.02.2018 23:00:00 -1,8 -5,4 -3,1 0,0 0,7 3,0 9 5 16 8 ENE 1024,5 12 0 0,0
20.02.2018 22:00:00 -1,6 -5,2 -3,3 0,0 0,7 3,0 7 4 13 7 ENE 1024,3 12 0 0,0
20.02.2018 21:00:00 -1,2 -5,2 -3,3 0,1 0,8 3,0 8 4 13 7 ENE 1023,9 15 0 0,0
20.02.2018 20:00:00 -0,3 -5,0 -1,8 0,1 0,8 3,0 8 5 15 8 ENE 1023,5 17 0 0,0
20.02.2018 19:00:00 -0,2 -4,9 -1,9 0,2 0,9 3,0 7 4 13 7 ENE 1023,1 17 0 0,0
20.02.2018 18:00:00 0,6 -4,6 -1,0 0,3 1,0 3,0 8 4 12 7 ENE 1022,5 13 0 0,0
20.02.2018 17:00:00 1,6 -4,0 0,6 1,1 0,9 3,0 6 3 19 11 ENE 1022,0 15 58 0,0
20.02.2018 16:00:00 2,7 -4,5 3,0 2,1 0,8 3,0 11 6 23 12 ENE 1021,8 17 60 0,0
20.02.2018 15:00:00 2,8 -4,7 3,7 2,0 0,6 3,0 16 9 31 17 E 1021,8 18 60 0,0
20.02.2018 14:00:00 2,5 -5,6 3,5 0,2 0,5 3,0 20 11 29 16 E 1021,7 20 60 0,0
20.02.2018 13:00:00 2,0 -5,3 2,7 0,0 0,6 3,0 17 9 29 16 E 1021,9 16 60 0,0
20.02.2018 12:00:00 1,5 -4,2 1,7 0,0 0,6 3,0 13 7 25 13 E 1021,8 12 60 0,0
20.02.2018 11:00:00 0,5 -3,8 0,7 0,0 0,6 3,0 14 8 24 13 E 1021,7 11 60 0,0
20.02.2018 10:00:00 0,1 -3,8 -0,2 0,0 0,6 3,0 15 8 24 13 E 1021,9 10 60 0,0
20.02.2018 09:00:00 -0,4 -4,1 -1,1 0,0 0,6 3,0 14 7 23 12 E 1021,9 10 37 0,0
20.02.2018 08:00:00 -1,4 -4,0 -2,2 0,0 0,6 3,0 11 6 18 10 E 1021,5 9 0 0,0
20.02.2018 07:00:00 -1,3 -3,7 -2,6 0,0 0,7 3,0 10 5 15 8 E 1021,4 8 0 0,0
20.02.2018 06:00:00 -0,9 -3,5 -1,7 0,0 0,7 3,0 10 6 16 9 E 1021,1 8 0 0,0
20.02.2018 05:00:00 -0,7 -3,4 -1,1 0,0 0,7 3,0 10 5 16 8 ENE 1021,1 8 0 0,0
20.02.2018 04:00:00 -0,8 -3,4 -1,1 0,1 0,7 3,0 11 6 17 9 ENE 1021,1 8 0 0,0
20.02.2018 03:00:00 -0,7 -3,5 -1,2 0,1 0,8 3,0 12 6 17 9 E 1021,2 8 0 0,0
20.02.2018 02:00:00 -0,8 -3,5 -1,4 0,1 0,8 3,0 13 7 17 9 E 1021,0 8 0 0,0
20.02.2018 01:00:00 -0,8 -3,5 -1,4 0,1 0,9 3,0 11 6 18 10 E 1021,1 9 0 0,0
20.02.2018 00:00:00 -0,2 -3,3 -0,7 0,1 0,9 3,0 13 7 18 10 ESE 1021,0 9 0 0,0
19.02.2018 23:00:00 0,1 -3,1 -0,3 -0,1 1,0 3,0 11 6 16 9 ESE 1020,9 10 0 0,0
19.02.2018 22:00:00 0,0 -3,0 -1,1 -0,1 1,2 3,0 10 5 14 7 ESE 1020,9 12 0 0,0
19.02.2018 21:00:00 0,7 -2,3 0,2 0,3 1,3 3,0 10 5 15 8 ESE 1021,0 11 0 0,0
19.02.2018 20:00:00 1,2 -2,7 0,6 0,6 1,5 3,0 10 5 17 9 SE 1021,0 12 0 0,0
19.02.2018 19:00:00 1,6 -2,2 0,9 1,1 1,6 3,0 12 7 16 9 SE 1020,9 14 0 0,0
19.02.2018 18:00:00 2,2 -1,8 1,7 1,7 1,6 3,0 9 5 15 8 SE 1020,8 16 0 0,0
19.02.2018 17:00:00 3,2 -1,9 2,4 2,9 1,5 3,0 14 8 20 11 SE 1020,5 20 8 0,0
19.02.2018 16:00:00 4,1 -1,9 4,6 3,9 1,3 3,0 13 7 19 10 SE 1020,7 20 45 0,0
19.02.2018 15:00:00 4,0 -1,1 4,2 3,7 1,0 3,0 13 7 16 9 SSE 1020,9 20 22 0,0
19.02.2018 14:00:00 3,2 -2,0 3,4 3,3 0,6 3,0 13 7 21 11 SSE 1021,1 17 27 0,0
19.02.2018 13:00:00 3,9 -1,5 5,4 3,0 0,4 3,0 14 8 21 12 SSE 1021,5 16 57 0,0
19.02.2018 12:00:00 1,6 -2,4 1,5 0,0 0,4 3,0 13 7 19 10 SSE 1022,2 17 54 0,0
19.02.2018 11:00:00 1,7 -2,9 2,3 0,0 0,4 3,0 15 8 21 12 S 1022,4 18 57 0,0
19.02.2018 10:00:00 0,8 -2,7 0,6 0,0 0,4 3,0 16 9 23 12 S 1022,8 17 33 0,0
19.02.2018 09:00:00 0,1 -2,9 -0,4 0,0 0,4 3,0 16 9 21 11 SSE 1023,0 17 1 0,0
19.02.2018 08:00:00 -0,3 -3,2 -0,9 0,0 0,4 3,0 14 8 23 13 SSE 1023,3 20 0 0,0
19.02.2018 07:00:00 -0,2 -3,1 -0,8 0,0 0,4 3,0 17 9 22 12 SSE 1023,3 20 0 0,0
19.02.2018 06:00:00 -0,4 -2,6 -1,0 0,0 0,4 3,0 13 7 20 11 SSE 1023,5 17 0 0,0
19.02.2018 05:00:00 0,0 -2,1 -0,4 0,0 0,4 3,0 13 7 17 9 SSE 1023,9 18 0 0,0
19.02.2018 04:00:00 0,0 -2,3 -0,4 0,0 0,4 3,0 13 7 18 10 SSE 1024,3 18 0 0,0
19.02.2018 03:00:00 0,1 -2,3 -0,3 0,0 0,4 3,0 14 8 18 10 SSE 1025,0 22 0 0,0
19.02.2018 02:00:00 0,2 -2,3 -0,1 0,0 0,4 3,0 13 7 17 9 SSE 1025,7 25 0 0,0
19.02.2018 01:00:00 0,0 -2,4 -0,5 0,0 0,4 3,0 14 7 16 9 SSE 1026,1 26 0 0,0
19.02.2018 00:00:00 0,2 -2,8 -0,4 0,0 0,4 3,0 13 7 16 9 SSE 1026,6 33 0 0,0

tt = Température de l'air
td = dewpoint
tt 5cm = Température de l'air 5cm
tt -5cm = Température de l'air -5cm
tt -20cm = Température de l'air -20cm
tt -100cm = Température de l'air -100cm
ff = Vitesse du vent
fx = gusts
dd = Direction du vent
ppp = reduced air pressure
vv = visibility
sd = Ensoleillement
rr = Quantités de précipitations

stations d'obs. à proximité